SCP
0 0 0 0 0 0 0 0 0 0 0 0 0 0 0 0 0 0 0 0 0 0 0 0 0 0 0 0 0 0 0 0 0 0 0 0 0 0 0 0 0 0 0 0 0 0 0 0 0
0 0 0 0 0 0 0 0 0 0 0 0 0 0 0 0 0 0 0 0 0 0 0 0 0 0 0 0 0 0 0 0 0 0 0 0 0 0 0 0 0 0 0 0 0 0 0 0 0
0 0 0 0 0 0 0 0 0 0 0 0 0 0 0 0 0 0 0 0 0 0 0 0 0 0 0 0 0 0 0 0 0 0 0 0 0 0 0 0 0 0 0 0 0 0 0 0 0
0 0 0 0 0 0 0 0 0 0 0 0 0 0 0 0 0 0 0 0 0 0 0 0 0 0 0 0 0 0 0 0 0 0 0 0 0 0 0 0 0 0 0 0 0 0 0 0 0
0 0 0 0 0 0 0 0 0 0 0 0 0 0 0 0 0 0 0 0 0 0 0 0 0 0 0 0 0 0 0 0 0 0 0 0 0 0 0 0 0 0 0 0 0 0 0 0 0
0 0 -0 0 0 0 0 0 0 0 0 0 0 0 0 0 0 0 0 0 0 0 0 0 0 0 0 0 0 0 0 0 0 0 0 0 0 0 0 0 0 0 0 0 0 0 0 0 0
0 0 0 0 0 0 0 0 0 0 0 0 0 0 0 0 0 0 0 0 0 0 0 0 0 0 0 0 0 0 0 0 0 0 0 0 0 0 0 0 0 0 0 0 0 0 0 0 0
0 0 0 0 0 0 0 0 0 0 0 0 0 0 0 0 0 0 0 0 0 0 0 0 0 0 0 0 0 0 0 0 0 0 0 0 0 0 0 0 0 0 0 0 0 0 0 0 0
0 0 0 0 0 0 0 0 0 0 0 0 0 0 0 0 0 0 0 0 0 0 0 0 0 0 0 0 0 0 0 0 0 0 0 0 0 0 0 0 0 0 0 0 0 0 0 0 0
0 0 0 0 0 0 0 0 0 0 0 0 0 0 0 0 0 0 0 0 0 0 0 0 0 0 0 0 0 0 0 0 0 0 0 0 0 0 0 0 0 0 0 0 0 0 0 0 0
0 0 0 0 0 0 0 0 0 0 0 0 0 0 0 0 0 0 0 0 0 0 0 0 0 0 0 0 0 0 0 0 0 0 0 0 0 0 0 0 0 0 0 0 0 0 0 0 0
0 0 0 0 0 0 0 0 0 0 0 0 0 0 0 0 0 0 0 0 0 0 0 0 0 0 0 0 0 0 0 0 0 0 0 0 0 0 0 0 0 0 0 0 0 0 0 0 0
0 0 0 0 0 0 0 0 0 0 0 0 0 0 0 0 0 0 0 0 0 0 0 0 0 0 0 0 0 0 0 0 0 0 0 0 0 0 0 0 0 0 0 0 0 0 0 0 0
0 0 0 0 0 0 0 0 0 0 0 0 0 0 0 0 0 0 0 0 0 0 0 0 0 0 0 0 0 0 0 0 0 1 0 0 0 0 0 0 0 0 0 0 0 0 0 0 0
0 0 0 0 0 0 0 0 0 0 0 0 0 0 0 0 0 0 0 0 0 0 0 0 0 0 0 0 0 0 0 0 0 1 0 0 0 0 0 0 0 0 0 0 0 0 0 0 0
0 0 0 0 0 0 0 0 0 0 0 0 0 0 0 0 0 0 0 0 0 0 0 0 0 0 0 0 0 0 0 0 0 0 0 0 0 0 0 0 0 0 0 0 0 0 0 0 0
0 0 0 0 0 0 0 0 0 0 0 0 0 0 0 0 0 0 0 0 0 0 0 0 0 0 0 0 0 0 0 0 0 0 0 0 0 0 0 0 0 0 0 0 0 0 0 0 0
0 0 0 0 0 0 0 0 0 0 0 0 0 0 0 0 0 0 0 0 0 0 0 0 0 0 0 0 0 0 0 0 0 0 0 0 0 0 0 0 0 0 0 0 0 0 0 0 0
0 0 0 0 0 0 0 0 0 0 0 0 0 0 0 0 0 0 0 0 0 0 0 0 0 0 0 0 0 0 0 0 0 0 0 0 0 0 0 0 0 0 0 0 0 0 0 0 0
0 0 0 0 0 0 0 0 0 0 0 0 0 0 0 0 0 0 0 0 0 0 0 0 0 0 0 0 0 0 0 0 0 0 0 0 0 0 0 0 0 0 0 0 0 0 0 0 0
0 0 0 0 0 0 0 0 0 0 0 0 0 0 0 0 0 0 0 0 0 0 0 0 0 0 0 0 0 0 0 0 0 0 0 0 0 0 0 0 0 0 0 0 0 0 0 0 0
0 0 0 0 0 0 0 0 0 0 0 0 0 0 0 0 0 0 0 0 0 0 0 0 0 0 0 0 0 0 0 0 0 0 0 0 0 0 0 0 0 0 0 0 0 0 0 0 0
0 0 0 0 0 0 0 0 0 0 0 0 0 0 0 0 0 0 0 0 0 0 0 0 0 0 0 0 0 0 0 0 0 0 0 0 0 0 0 0 0 0 0 0 0 0 0 0 0
0 0 0 0 0 0 0 0 0 0 0 0 0 0 0 0 0 0 0 0 0 0 0 0 0 0 0 0 0 0 0 0 0 0 0 0 0 0 0 0 0 0 0 0 0 0 0 0 0
0 0 0 0 0 0 0 0 0 0 0 0 0 0 0 0 0 0 0 0 0 0 0 0 0 0 0 0 0 0 0 0 0 0 0 0 0 0 0 0 0 0 0 0 0 0 0 0 0
0 0 0 0 0 0 0 0 0 0 0 0 0 0 0 0 0 0 0 0 0 0 0 0 0 0 0 0 0 0 0 0 0 0 0 0 0 0 0 0 0 0 0 0 0 0 0 0 0
0 0 0 0 0 0 0 0 0 0 0 0 0 0 0 0 0 0 0 0 0 0 0 0 0 0 0 0 0 0 0 0 0 0 0 0 0 0 0 0 0 0 0 0 0 0 0 0 0
0 0 0 0 0 0 0 0 0 0 0 0 0 0 0 0 0 0 0 0 0 0 0 0 0 0 0 0 0 0 0 0 0 0 0 0 0 0 0 0 0 0 0 0 0 0 0 0 0
0 0 0 0 0 0 0 0 0 0 0 0 0 0 0 0 0 0 0 0 0 0 0 0 0 0 0 0 0 0 0 0 0 0 0 0 0 0 0 0 0 0 0 0 0 0 0 0 0
0 0 0 0 0 0 0 0 0 0 0 0 0 0 0 0 0 0 0 0 0 0 0 0 0 0 0 0 0 0 0 0 0 0 0 0 0 0 0 0 0 0 0 0 0 0 0 0 0
Wind_Speed
4 2 2 3 2 1 3 4 4 6 6 2 3 3 3 1 1 5 7 8 9 11 11 11 9 11 12 12 12 12 13 14 14 15 15 16 16 16 17 16 16 17 18 19 20 20 20 20 20
3 1 3 2 3 2 4 6 6 5 5 6 4 3 3 3 3 6 8 7 10 11 11 11 11 11 12 12 12 12 13 13 14 15 15 16 16 17 17 17 17 17 19 19 20 20 20 20 20
1 1 2 1 2 2 4 7 7 6 7 3 4 1 1 5 6 8 5 8 11 11 10 11 11 12 12 12 12 12 13 13 14 14 15 16 17 17 17 17 17 18 19 20 20 20 20 20 20
2 2 0 2 1 1 0 5 8 10 6 3 4 5 3 3 3 3 4 9 12 11 10 11 10 12 12 12 13 13 13 13 14 14 15 16 16 17 17 18 18 18 19 19 19 20 20 20 20
1 2 1 1 1 1 1 4 10 10 6 5 5 4 6 4 2 3 6 11 12 11 10 11 9 10 11 11 12 12 13 13 14 14 15 16 16 17 17 18 18 19 19 19 19 20 20 20 20
1 2 3 3 3 1 3 7 9 6 4 4 5 6 7 5 5 6 7 10 11 10 10 10 9 9 9 10 10 11 12 13 14 14 15 15 16 16 17 18 18 19 19 19 20 20 20 20 21
3 3 3 3 4 4 5 8 7 6 6 5 5 7 6 8 7 7 7 9 9 10 9 9 10 10 8 8 9 10 11 12 12 14 14 14 15 16 16 16 18 19 19 19 20 20 20 20 20
1 3 4 4 5 5 7 8 3 5 3 3 5 5 6 11 10 8 7 8 8 9 9 9 9 10 10 10 9 9 10 11 12 13 13 13 13 14 13 14 17 19 19 19 20 20 20 20 20
3 5 6 6 7 5 9 8 5 1 3 4 4 2 4 11 12 10 8 8 8 8 9 9 9 9 9 9 9 10 10 11 12 12 13 12 11 12 11 14 16 18 19 20 20 20 20 18 18
4 7 7 3 4 3 9 8 8 7 7 7 6 5 5 11 14 15 15 15 14 13 11 8 9 8 8 7 8 8 8 10 10 11 12 8 8 8 11 13 14 16 17 19 19 17 14 11 9
3 5 2 3 3 2 7 6 6 7 9 10 9 11 11 14 16 17 17 17 16 15 12 9 8 7 7 6 6 5 5 6 9 11 11 9 8 8 8 8 9 11 12 11 12 10 8 8 7
2 2 2 3 3 3 5 6 7 11 7 1 2 6 13 17 19 19 19 17 15 14 14 11 9 8 8 6 6 6 6 6 6 9 11 9 7 7 7 6 7 6 5 7 7 7 9 10 10
3 4 2 2 3 2 3 6 5 10 9 2 2 7 13 16 18 16 15 14 14 15 14 12 10 9 8 7 6 6 7 7 8 8 10 11 8 9 8 7 6 7 7 8 8 9 10 10 10
3 4 3 2 2 2 4 4 5 9 5 7 7 9 12 14 16 15 15 16 16 16 15 12 11 10 9 8 8 8 7 7 8 8 10 12 9 9 9 8 7 7 7 7 8 10 10 9 8
2 3 2 2 2 1 3 8 12 6 4 8 10 11 11 12 13 17 18 17 17 15 13 12 11 11 11 11 11 8 8 7 7 7 10 11 10 11 10 9 8 8 8 10 9 10 9 9 9
3 3 5 3 2 1 5 12 5 2 6 11 12 11 11 12 15 16 16 15 15 14 14 13 9 11 11 11 10 8 8 8 7 7 8 11 12 12 10 9 9 9 9 9 9 9 9 9 8
4 5 5 3 3 3 8 11 3 2 5 10 11 11 12 13 15 16 16 16 15 15 14 14 13 12 12 10 9 8 7 8 7 7 7 9 12 13 11 10 9 11 9 9 9 9 9 10 9
7 6 5 5 3 4 8 14 12 7 7 12 12 11 12 14 17 16 16 16 15 14 14 14 13 13 11 9 7 6 7 6 6 6 7 10 10 12 11 10 12 12 10 9 9 11 9 9 10
4 5 5 3 1 4 11 16 18 15 12 15 17 16 16 16 17 13 13 14 15 15 16 16 15 14 12 9 8 8 8 6 5 5 7 9 10 12 11 10 13 12 11 12 14 12 13 10 10
5 6 7 4 0 5 9 17 18 18 18 18 19 19 19 18 16 12 12 13 16 17 17 17 17 16 15 12 9 6 7 5 5 4 5 8 9 11 10 14 13 13 11 13 14 15 10 8 10
8 10 8 5 1 4 7 15 13 11 10 13 17 19 21 20 20 16 12 14 15 16 18 16 18 18 17 15 9 5 4 3 4 6 6 7 9 10 10 14 13 14 14 15 17 17 14 12 10
10 8 7 4 5 5 3 10 10 6 10 12 16 17 20 20 18 16 13 13 15 16 15 16 17 17 17 16 14 15 12 12 12 7 6 7 8 10 10 12 13 15 13 16 17 17 12 15 12
4 4 4 3 5 7 7 9 14 4 12 16 18 19 19 17 14 13 12 12 13 13 13 14 16 17 17 17 17 17 14 12 8 8 9 9 8 9 10 11 12 13 12 15 17 15 13 12 12
9 7 5 2 2 11 9 12 14 9 12 11 11 13 13 10 8 8 7 7 8 9 11 12 15 17 17 18 18 18 18 15 12 12 11 9 7 7 10 10 11 12 11 14 16 15 15 12 12
8 7 4 5 6 12 5 11 15 10 12 10 11 12 7 5 6 6 6 6 7 8 11 12 15 16 17 18 18 18 18 16 16 15 13 11 8 8 12 12 11 11 10 12 13 14 14 14 13
13 13 11 9 8 7 4 14 11 6 9 12 15 16 13 12 9 8 8 8 7 8 10 12 14 15 16 17 17 16 17 12 12 14 12 13 11 11 13 14 13 13 12 12 12 11 12 11 12
11 12 8 4 1 7 12 13 11 7 12 16 17 14 14 12 9 8 8 7 7 7 10 12 13 14 15 16 16 16 17 15 14 13 12 10 10 9 14 14 14 13 13 13 13 10 12 11 10
4 8 6 9 8 11 15 17 12 5 13 15 13 13 13 9 7 6 5 5 5 6 7 10 12 13 14 15 15 13 16 16 15 13 14 12 12 10 13 13 13 13 13 14 13 11 12 12 10
11 9 9 8 8 9 10 14 6 10 8 7 7 7 6 6 5 4 3 3 4 5 7 9 11 13 13 15 15 16 15 15 15 14 15 14 13 13 14 14 14 14 15 14 14 13 14 14 12
13 15 16 11 9 7 8 16 5 8 6 6 7 6 4 4 5 4 3 3 5 6 8 10 11 13 14 14 15 16 16 16 16 17 16 14 14 14 14 14 14 15 15 15 16 16 16 16 15
Wind_Direction
338 356 239 232 217 166 134 138 150 148 158 130 149 181 192 154 20 87 108 141 147 149 151 154 147 137 131 126 121 114 104 96 90 85 82 81 80 80 80 81 82 84 85 85 84 81 80 77 74
347 289 228 243 255 225 159 166 175 149 119 124 130 148 160 130 79 111 136 145 154 151 152 151 140 136 132 129 125 119 110 102 95 88 85 83 82 82 82 82 83 85 86 86 84 83 81 79 77
124 300 266 219 253 275 156 172 164 119 132 160 149 157 163 127 135 134 125 152 157 152 153 144 144 140 138 134 131 125 118 109 101 94 89 87 86 85 85 85 86 87 87 86 85 84 82 81 79
232 197 192 247 210 10 73 156 154 145 160 177 175 149 137 99 122 105 136 161 158 153 153 147 149 144 144 141 138 133 126 117 108 100 95 92 90 90 90 89 89 88 87 87 86 86 85 83 81
239 237 219 184 139 85 203 155 164 163 171 169 192 162 146 135 131 134 157 163 160 155 154 151 149 146 146 145 143 140 133 125 116 108 102 98 97 96 95 94 93 91 90 90 89 88 87 85 83
172 218 236 211 156 132 159 162 169 182 172 169 190 161 141 141 162 149 161 166 162 156 155 153 144 145 147 148 147 144 139 132 124 117 111 106 103 102 101 100 98 97 95 93 92 90 89 87 84
202 210 239 206 172 177 163 166 187 189 194 183 188 166 147 171 165 154 162 163 163 160 161 161 160 157 151 150 150 147 143 137 130 123 115 109 106 105 104 104 104 102 100 97 95 93 91 88 84
155 166 171 195 198 192 159 168 207 203 187 123 197 196 158 170 157 155 158 164 167 168 170 168 168 170 168 165 156 152 148 142 134 125 117 111 109 107 107 110 109 107 105 102 99 96 92 87 83
210 212 213 204 203 193 164 181 163 228 157 176 214 285 69 141 154 160 166 175 178 180 180 179 176 176 176 173 162 166 160 151 143 135 132 135 130 124 120 112 113 112 110 107 103 99 94 90 81
204 225 226 202 202 184 176 196 174 184 198 204 205 188 150 163 172 179 186 189 190 189 187 185 186 181 182 176 178 183 176 170 170 158 156 151 138 125 120 111 111 112 111 109 105 102 99 95 90
203 231 186 177 194 200 180 194 182 208 218 217 209 185 170 179 187 193 196 198 197 193 188 191 189 187 190 189 192 189 187 182 180 171 165 153 140 134 131 128 121 121 120 114 112 105 94 89 86
139 125 152 156 171 184 191 182 195 222 229 60 231 169 174 187 195 200 200 200 199 198 196 193 193 195 198 200 201 198 194 191 187 180 171 162 155 153 150 147 144 140 128 124 115 105 100 95 90
151 142 127 109 153 190 181 204 227 234 230 220 208 192 196 198 203 206 207 205 204 205 202 198 199 203 202 204 207 208 204 201 195 187 179 174 167 162 159 152 150 143 135 130 123 117 111 104 97
125 134 132 146 162 175 211 231 242 246 210 216 223 220 214 211 207 204 207 209 208 210 206 201 203 207 208 211 211 213 212 206 202 194 186 182 175 167 161 155 151 146 140 132 128 125 117 108 103
116 140 180 199 208 197 232 249 233 235 191 228 231 232 227 224 215 214 211 212 211 210 208 204 206 207 211 215 217 217 213 209 205 200 193 186 181 172 165 158 155 148 140 133 127 124 118 114 110
126 187 221 191 206 203 224 258 241 184 224 242 241 238 236 232 226 225 220 217 215 211 208 207 203 208 210 213 216 215 214 210 208 203 196 190 184 176 167 160 157 150 145 143 138 137 128 123 119
196 218 227 203 184 195 226 260 265 163 238 254 252 247 244 245 237 229 222 219 214 212 209 207 205 208 208 208 211 212 210 211 207 202 198 192 185 176 169 163 157 153 149 148 144 142 137 131 124
195 210 222 230 168 211 235 254 265 239 249 265 266 259 250 248 245 233 220 216 213 211 210 208 205 206 201 197 200 202 206 207 205 204 200 190 183 177 168 160 159 156 151 151 149 142 137 133 129
174 194 221 231 99 241 252 261 268 270 253 258 260 259 255 253 253 239 219 209 208 208 207 206 205 201 193 190 192 197 204 200 201 202 196 190 180 174 167 160 162 163 162 161 154 145 140 140 139
173 215 244 255 214 254 278 274 269 264 257 253 256 257 256 255 253 237 219 208 207 208 207 207 207 201 198 198 194 197 190 194 194 184 195 190 180 174 170 166 167 168 161 158 157 152 147 157 170
212 229 239 236 259 235 290 279 252 251 255 257 254 255 258 256 255 249 224 215 212 212 210 207 206 203 200 196 185 161 157 159 180 195 194 191 183 177 174 174 170 171 168 167 170 168 164 169 184
226 227 231 222 255 259 239 283 274 243 261 257 255 250 250 250 251 252 241 225 218 218 213 212 208 205 200 194 193 192 195 200 200 189 182 179 185 182 179 178 176 176 176 174 177 180 179 171 177
181 104 156 202 238 269 218 250 273 245 259 255 252 253 253 256 257 256 249 237 228 218 211 209 208 207 202 200 201 203 208 210 192 178 178 179 183 185 183 181 181 183 183 180 181 182 184 182 183
131 108 89 95 228 261 222 224 263 236 244 253 249 252 257 266 269 267 259 243 231 213 206 205 206 208 205 204 206 208 209 203 188 187 182 181 180 185 188 186 187 188 188 185 185 184 187 187 189
175 162 199 223 224 250 157 235 254 238 240 253 268 273 274 276 274 269 259 243 225 209 203 202 205 209 206 208 211 212 214 208 203 197 191 184 182 190 191 187 190 191 193 189 185 185 189 189 188
193 200 207 225 232 259 189 242 256 251 273 272 266 268 277 273 266 261 258 252 233 211 203 203 207 210 207 210 213 214 215 211 209 204 195 193 194 193 187 189 189 191 189 187 186 185 187 188 188
178 218 234 239 254 277 258 257 272 249 260 255 255 262 267 271 272 264 257 248 234 214 204 205 207 211 210 211 213 214 214 213 209 202 201 201 200 189 185 187 187 186 185 184 182 184 183 180 180
199 161 155 201 221 243 255 260 261 225 239 245 251 257 265 274 277 270 255 244 233 219 209 208 211 213 213 212 213 215 215 215 212 203 202 200 197 186 184 186 184 183 183 182 182 178 177 172 168
171 187 201 202 218 226 252 258 222 220 232 243 251 253 267 282 284 279 266 251 231 216 209 209 213 215 215 213 213 215 216 215 213 209 206 201 194 188 188 187 184 183 182 181 181 177 171 169 162
213 207 194 199 214 225 250 265 189 218 238 245 263 273 273 274 275 272 267 260 243 228 217 215 214 216 215 212 214 216 217 215 215 214 210 202 196 193 190 188 187 187 184 181 181 175 173 170 166